Beatrice, NE

12:54 AM CDT on August 26, 2016 (GMT -0500)
Beatrice Municipal

Weather History for KBIE - January, 2012

Change the Weather History Date:

Thursday, January 5, 2012

  Actual Average Record
Temperature  
Mean Temperature 48 °F -  
Max Temperature 68 °F 29 °F 68 °F (2012)
Min Temperature 28 °F 11 °F -10 °F (1971)
Degree Days  
Heating Degree Days 17    
Moisture  
Dew Point 27 °F    
Average Humidity 59    
Maximum Humidity 87    
Minimum Humidity 23    
Precipitation  
Precipitation 0.01 in - - ()
Sea Level Pressure  
Sea Level Pressure 29.99 in    
Wind  
Wind Speed 5 mph (SSW)    
Max Wind Speed 14 mph    
Max Gust Speed 18 mph    
Visibility 10 miles    
Events      
Averages and records for this station are not official NWS values.
T = Trace of Precipitation, MM = Missing Value Source: NWS Daily Summary

Daily Weather History Graph

Daily Weather History Graph

Search for Another Location

Airport or City:

Trip Planner

Search our weather history database for the weather conditions in past years. The results will help you decide how hot, cold, wet, or windy it might be!

Date:

Astronomy

Jan. 05, 2012 Rise Set
Actual Time 7:50 AM CST 5:14 PM CST
Civil Twilight 7:19 AM CST 5:45 PM CST
Nautical Twilight 6:45 AM CST 6:19 PM CST
Astronomical Twilight 6:12 AM CST 6:52 PM CST
Moon 2:19 PM CST (1/5) 4:36 AM CST (1/5)
Length of Visible Light 10h 25m
Length of Day
9h 24m
Waxing Gibbous, 88% of the Moon is Illuminated
Jan 5
Waxing Gibbous
Jan 9
Full
Jan 16
Last Quarter
Jan 23
New
Jan 30
First Quarter

Hourly Weather History & Observations

Time (CST) Temp. Windchill Dew Point Humidity Pressure Visibility Wind Dir Wind Speed Gust Speed Precip Events Conditions
12:15 AM 33.8 °F - 26.6 °F 75% 30.12 in 10.0 mi Calm Calm - N/A   Clear
12:35 AM 32.0 °F - 26.6 °F 80% 30.11 in 10.0 mi Calm Calm - N/A   Clear
12:55 AM 33.8 °F 28.6 °F 26.6 °F 75% 30.11 in 10.0 mi West 5.8 mph - N/A   Clear
1:15 AM 33.8 °F 30.8 °F 26.6 °F 75% 30.10 in 10.0 mi WSW 3.5 mph - N/A   Clear
1:35 AM 33.8 °F - 28.4 °F 81% 30.09 in 10.0 mi Calm Calm - N/A   Clear
1:55 AM 32.0 °F 27.5 °F 24.8 °F 75% 30.09 in 10.0 mi South 4.6 mph - N/A   Clear
2:15 AM 32.0 °F 28.7 °F 26.6 °F 80% 30.09 in 10.0 mi South 3.5 mph - N/A   Clear
2:35 AM 32.0 °F 28.7 °F 26.6 °F 80% 30.09 in 10.0 mi SSW 3.5 mph - N/A   Clear
2:55 AM 30.2 °F 26.7 °F 26.6 °F 86% 30.09 in 10.0 mi SSW 3.5 mph - N/A   Clear
3:15 AM 30.2 °F 26.7 °F 26.6 °F 86% 30.08 in 10.0 mi SW 3.5 mph - N/A   Clear
3:35 AM 30.2 °F 26.7 °F 26.6 °F 86% 30.08 in 10.0 mi South 3.5 mph - N/A   Clear
3:55 AM 30.2 °F 25.4 °F 24.8 °F 80% 30.08 in 10.0 mi SSW 4.6 mph - N/A   Clear
4:15 AM 28.4 °F 24.6 °F 24.8 °F 86% 30.07 in 10.0 mi SSW 3.5 mph - N/A   Clear
4:35 AM 30.2 °F 26.7 °F 26.6 °F 86% 30.08 in 10.0 mi SSW 3.5 mph - N/A   Clear
4:55 AM 30.2 °F - 26.6 °F 86% 30.07 in 10.0 mi Calm Calm - N/A   Clear
5:15 AM 28.4 °F - 24.8 °F 86% 30.07 in 10.0 mi Calm Calm - N/A   Clear
5:35 AM 30.2 °F - 24.8 °F 80% 30.07 in 10.0 mi Calm Calm - N/A   Clear
5:55 AM 28.4 °F 24.6 °F 24.8 °F 86% 30.06 in 10.0 mi South 3.5 mph - N/A   Clear
6:15 AM 30.2 °F 26.7 °F 26.6 °F 86% 30.06 in 10.0 mi South 3.5 mph - N/A   Clear
6:35 AM 28.4 °F 24.6 °F 24.8 °F 86% 30.05 in 10.0 mi South 3.5 mph - N/A   Clear
6:55 AM 28.4 °F - 24.8 °F 86% 30.05 in 10.0 mi Calm Calm - N/A   Clear
7:15 AM 28.4 °F 22.2 °F 24.8 °F 86% 30.04 in 10.0 mi South 5.8 mph - N/A   Clear
7:55 AM 28.4 °F 22.2 °F 24.8 °F 86% 30.03 in 10.0 mi South 5.8 mph - N/A   Clear
8:15 AM 30.2 °F 25.4 °F 26.6 °F 86% 30.03 in 10.0 mi South 4.6 mph - N/A   Clear
8:35 AM 32.0 °F 26.4 °F 26.6 °F 80% 30.02 in 10.0 mi South 5.8 mph - N/A   Clear
8:55 AM 32.0 °F 28.7 °F 28.4 °F 87% 30.02 in 10.0 mi South 3.5 mph - N/A   Clear
9:15 AM 35.6 °F 31.7 °F 28.4 °F 75% 30.03 in 10.0 mi SSW 4.6 mph - N/A   Clear
9:35 AM 37.4 °F 34.9 °F 30.2 °F 75% 30.02 in 10.0 mi SSW 3.5 mph - N/A   Clear
9:55 AM 41.0 °F 37.1 °F 30.2 °F 65% 30.02 in 10.0 mi SW 5.8 mph - N/A   Clear
10:15 AM 42.8 °F 39.3 °F 28.4 °F 57% 30.02 in 10.0 mi WSW 5.8 mph - N/A   Clear
10:35 AM 44.6 °F 39.7 °F 28.4 °F 53% 30.02 in 10.0 mi WSW 9.2 mph - N/A   Clear
10:55 AM 48.2 °F - 30.2 °F 50% 30.01 in 10.0 mi WSW 8.1 mph - N/A   Clear
11:15 AM 50.0 °F - 28.4 °F 43% 30.00 in 10.0 mi WSW 9.2 mph - N/A   Clear
11:35 AM 53.6 °F - 28.4 °F 38% 29.99 in 10.0 mi SW 9.2 mph - N/A   Clear
11:55 AM 53.6 °F - 28.4 °F 38% 29.97 in 10.0 mi SW 10.4 mph - N/A   Clear
12:15 PM 55.4 °F - 28.4 °F 36% 29.96 in 10.0 mi SW 10.4 mph - N/A   Clear
12:35 PM 59.0 °F - 28.4 °F 31% 29.94 in 10.0 mi SW 10.4 mph - N/A   Clear
12:55 PM 60.8 °F - 28.4 °F 29% 29.92 in 10.0 mi SW 11.5 mph - N/A   Clear
1:15 PM 62.6 °F - 28.4 °F 27% 29.91 in 10.0 mi WSW 13.8 mph 17.3 mph N/A   Clear
1:35 PM 64.4 °F - 28.4 °F 26% 29.90 in 10.0 mi SW 11.5 mph - N/A   Clear
1:55 PM 66.2 °F - 28.4 °F 24% 29.88 in 10.0 mi SW 12.7 mph - N/A   Clear
2:15 PM 66.2 °F - 28.4 °F 24% 29.87 in 10.0 mi SW 11.5 mph - N/A   Clear
2:35 PM 68.0 °F - 28.4 °F 23% 29.86 in 10.0 mi SW 11.5 mph 16.1 mph N/A   Clear
2:55 PM 68.0 °F - 28.4 °F 23% 29.85 in 10.0 mi SW 13.8 mph - N/A   Clear
3:15 PM 68.0 °F - 28.4 °F 23% 29.85 in 10.0 mi SW 12.7 mph - 0.01 in   Clear
3:35 PM 68.0 °F - 28.4 °F 23% 29.84 in 10.0 mi SW 13.8 mph 18.4 mph 0.01 in   Clear
3:55 PM 68.0 °F - 28.4 °F 23% 29.83 in 10.0 mi SW 10.4 mph - 0.01 in   Clear
4:15 PM 64.4 °F - 30.2 °F 28% 29.83 in 10.0 mi SW 8.1 mph - N/A   Clear
4:35 PM 64.4 °F - 30.2 °F 28% 29.83 in 10.0 mi SSW 9.2 mph - N/A   Clear
4:55 PM 60.8 °F - 28.4 °F 29% 29.82 in 10.0 mi SSW 9.2 mph - N/A   Clear
5:15 PM 57.2 °F - 28.4 °F 33% 29.83 in 10.0 mi SW 8.1 mph - N/A   Clear
5:35 PM 53.6 °F - 28.4 °F 38% 29.82 in 10.0 mi SW 8.1 mph - N/A   Clear
5:55 PM 51.8 °F - 28.4 °F 41% 29.83 in 10.0 mi SSW 8.1 mph - N/A   Clear
6:15 PM 51.8 °F - 28.4 °F 41% 29.82 in 10.0 mi SSW 9.2 mph - N/A   Clear
6:35 PM 51.8 °F - 30.2 °F 44% 29.81 in 10.0 mi South 9.2 mph - N/A   Clear
6:55 PM 51.8 °F - 30.2 °F 44% 29.80 in 10.0 mi South 10.4 mph - N/A   Clear
7:15 PM 50.0 °F - 30.2 °F 47% 29.80 in 10.0 mi South 11.5 mph - N/A   Clear
7:35 PM 50.0 °F - 32.0 °F 50% 29.80 in 10.0 mi South 4.6 mph - N/A   Clear
7:55 PM 50.0 °F - 32.0 °F 50% 29.80 in 10.0 mi SSE 4.6 mph - N/A   Clear
8:15 PM 46.4 °F 44.3 °F 32.0 °F 57% 29.79 in 10.0 mi South 4.6 mph - N/A   Clear
8:35 PM 46.4 °F 42.4 °F 32.0 °F 57% 29.78 in 10.0 mi South 8.1 mph - N/A   Clear
8:55 PM 44.6 °F 42.2 °F 32.0 °F 61% 29.78 in 10.0 mi South 4.6 mph - N/A   Clear
9:15 PM 44.6 °F 41.4 °F 32.0 °F 61% 29.77 in 10.0 mi South 5.8 mph - N/A   Clear
9:35 PM 42.8 °F 40.1 °F 30.2 °F 61% 29.78 in 10.0 mi SSW 4.6 mph - N/A   Clear
9:55 PM 46.4 °F 41.5 °F 32.0 °F 57% 29.76 in 10.0 mi SSW 10.4 mph - N/A   Clear
10:15 PM 46.4 °F 42.4 °F 32.0 °F 57% 29.76 in 10.0 mi SSW 8.1 mph - N/A   Clear
10:35 PM 46.4 °F 41.9 °F 32.0 °F 57% 29.75 in 10.0 mi South 9.2 mph - N/A   Clear
10:55 PM 48.2 °F - 32.0 °F 54% 29.74 in 10.0 mi SSW 9.2 mph - N/A   Clear
11:15 PM 48.2 °F - 32.0 °F 54% 29.74 in 10.0 mi SW 6.9 mph - N/A   Clear
11:35 PM 46.4 °F 44.3 °F 32.0 °F 57% 29.73 in 10.0 mi SSW 4.6 mph - N/A   Clear
11:55 PM 46.4 °F 43.5 °F 32.0 °F 57% 29.73 in 10.0 mi SSW 5.8 mph - N/A   Clear